N165AZ CYZV-CYBG

Flight info

Callsign N165AZ
Flight time N/A
Altitude 4000
Route TABRU T603 YBC DCT KAVMU
Aircraft BE58/L-SDFGRY/C

Departure

Time 2026-04-16 00:05
Airport Sept-Îles Airport (CYZV)

Arrival

Time N/A
Airport Saguenay-Bagotville Airport (CYBG)
Time Latitude Longitude Altitude Speed Heading
2026-04-15 23:40 50.21873 -66.26297 174 ft 0 kts 252°
2026-04-16 00:00 50.21872 -66.26305 174 ft 3 kts 252°
2026-04-16 00:00 50.21868 -66.26324 174 ft 4 kts 257°
2026-04-16 00:00 50.21893 -66.26397 174 ft 10 kts 284°
2026-04-16 00:00 50.21868 -66.26523 174 ft 14 kts 248°
2026-04-16 00:01 50.21829 -66.26679 173 ft 14 kts 249°
2026-04-16 00:01 50.21777 -66.26781 174 ft 12 kts 245°
2026-04-16 00:01 50.21745 -66.26908 173 ft 13 kts 248°
2026-04-16 00:01 50.21707 -66.27053 173 ft 15 kts 251°
2026-04-16 00:02 50.21670 -66.27213 173 ft 14 kts 248°
2026-04-16 00:02 50.21681 -66.27315 173 ft 9 kts 302°
2026-04-16 00:02 50.21708 -66.27407 173 ft 10 kts 294°
2026-04-16 00:02 50.21737 -66.27503 172 ft 0 kts 296°
2026-04-16 00:03 50.21739 -66.27509 172 ft 2 kts 296°
2026-04-16 00:03 50.21740 -66.27513 172 ft 0 kts 296°
2026-04-16 00:04 50.21753 -66.27555 170 ft 7 kts 295°
2026-04-16 00:04 50.21769 -66.27607 167 ft 9 kts 293°
2026-04-16 00:04 50.21801 -66.27640 166 ft 6 kts 43°
2026-04-16 00:04 50.21839 -66.27493 167 ft 44 kts 69°
2026-04-16 00:05 50.22039 -66.26685 210 ft 105 kts 68°
2026-04-16 00:05 50.22395 -66.25667 600 ft 111 kts 60°
2026-04-16 00:05 50.22775 -66.24526 880 ft 126 kts 66°
2026-04-16 00:05 50.23115 -66.23290 1361 ft 119 kts 69°
2026-04-16 00:06 50.23465 -66.21954 1421 ft 143 kts 69°
2026-04-16 00:06 50.23788 -66.20936 2505 ft 78 kts 63°
2026-04-16 00:06 50.24186 -66.19999 2373 ft 136 kts 59°
2026-04-16 00:06 50.24712 -66.18928 2906 ft 123 kts 48°
2026-04-16 00:07 50.25480 -66.17943 2854 ft 153 kts 32°
2026-04-16 00:07 50.26408 -66.17078 3078 ft 156 kts 30°
2026-04-16 00:07 50.27328 -66.16195 3355 ft 155 kts 30°
2026-04-16 00:07 50.28243 -66.15302 3605 ft 155 kts 30°
2026-04-16 00:08 50.29258 -66.14986 3859 ft 151 kts 340°
2026-04-16 00:08 50.30049 -66.16001 4002 ft 155 kts 294°
2026-04-16 00:08 50.30289 -66.17690 4013 ft 166 kts 263°
2026-04-16 00:08 50.29800 -66.19322 4013 ft 174 kts 229°
2026-04-16 00:09 50.28929 -66.20709 4011 ft 181 kts 226°
2026-04-16 00:09 50.28060 -66.22168 4010 ft 184 kts 230°
2026-04-16 00:09 50.27225 -66.23670 4009 ft 186 kts 230°
2026-04-16 00:09 50.26375 -66.25217 4008 ft 187 kts 230°
2026-04-16 00:10 50.25523 -66.26761 4008 ft 187 kts 230°
2026-04-16 00:10 50.24677 -66.28292 4009 ft 187 kts 230°
2026-04-16 00:10 50.23823 -66.29836 4009 ft 187 kts 230°
2026-04-16 00:10 50.22973 -66.31373 4010 ft 187 kts 230°
2026-04-16 00:11 50.22122 -66.32911 4007 ft 187 kts 230°
2026-04-16 00:11 50.21270 -66.34449 4007 ft 187 kts 230°
2026-04-16 00:11 50.20417 -66.35988 4007 ft 187 kts 230°
2026-04-16 00:11 50.19575 -66.37507 4007 ft 187 kts 230°
2026-04-16 00:12 50.18720 -66.39047 4006 ft 187 kts 230°
2026-04-16 00:12 50.17869 -66.40579 4009 ft 187 kts 230°
2026-04-16 00:12 50.17026 -66.42100 4011 ft 187 kts 230°
2026-04-16 00:12 50.16169 -66.43641 4009 ft 188 kts 230°
2026-04-16 00:13 50.15312 -66.45182 4009 ft 188 kts 230°
2026-04-16 00:13 50.14455 -66.46722 4006 ft 188 kts 230°
2026-04-16 00:13 50.13605 -66.48249 4012 ft 189 kts 230°
2026-04-16 00:13 50.12740 -66.49803 4014 ft 190 kts 230°
2026-04-16 00:14 50.11871 -66.51361 4014 ft 190 kts 230°
2026-04-16 00:14 50.11001 -66.52918 4008 ft 189 kts 230°
2026-04-16 00:14 50.10150 -66.54444 4007 ft 188 kts 230°
2026-04-16 00:14 50.09292 -66.55980 4007 ft 187 kts 230°
2026-04-16 00:15 50.08437 -66.57511 4015 ft 187 kts 230°
2026-04-16 00:15 50.07583 -66.59038 4015 ft 187 kts 230°
2026-04-16 00:15 50.06727 -66.60567 4014 ft 186 kts 230°
2026-04-16 00:15 50.05875 -66.62090 4014 ft 186 kts 230°
2026-04-16 00:16 50.05035 -66.63589 4010 ft 186 kts 230°
2026-04-16 00:16 50.04180 -66.65115 4011 ft 186 kts 230°
2026-04-16 00:16 50.03328 -66.66635 4010 ft 186 kts 230°
2026-04-16 00:16 50.02475 -66.68155 4011 ft 186 kts 230°
2026-04-16 00:17 50.01628 -66.69663 4010 ft 186 kts 230°
2026-04-16 00:17 50.00774 -66.71183 4011 ft 186 kts 230°
2026-04-16 00:17 49.99918 -66.72707 4008 ft 186 kts 230°
2026-04-16 00:17 49.99064 -66.74225 4008 ft 186 kts 230°
2026-04-16 00:18 49.98218 -66.75728 4011 ft 186 kts 230°
2026-04-16 00:18 49.97365 -66.77244 4011 ft 186 kts 230°
2026-04-16 00:18 49.96510 -66.78760 4011 ft 186 kts 230°
2026-04-16 00:18 49.95656 -66.80277 4011 ft 186 kts 230°
2026-04-16 00:19 49.94799 -66.81795 4010 ft 186 kts 230°
2026-04-16 00:19 49.93957 -66.83287 4010 ft 186 kts 230°
2026-04-16 00:19 49.93100 -66.84804 4003 ft 186 kts 230°
2026-04-16 00:19 49.92244 -66.86318 4008 ft 186 kts 230°
2026-04-16 00:20 49.91393 -66.87825 4006 ft 186 kts 230°
2026-04-16 00:20 49.90538 -66.89336 4006 ft 186 kts 230°
2026-04-16 00:20 49.89695 -66.90825 4005 ft 185 kts 230°
2026-04-16 00:20 49.88844 -66.92328 4006 ft 185 kts 230°
2026-04-16 00:21 49.87991 -66.93833 4008 ft 185 kts 230°
2026-04-16 00:21 49.87139 -66.95337 4008 ft 185 kts 230°
2026-04-16 00:21 49.86287 -66.96837 4009 ft 185 kts 230°
2026-04-16 00:21 49.85445 -66.98320 4003 ft 185 kts 230°
2026-04-16 00:22 49.84589 -66.99829 4006 ft 185 kts 230°
2026-04-16 00:22 49.83737 -67.01326 4006 ft 185 kts 230°
2026-04-16 00:22 49.82882 -67.02830 4006 ft 185 kts 230°
2026-04-16 00:22 49.82029 -67.04329 4006 ft 185 kts 230°